Zurück zum Katalog

FENGYUN 1C DEB

AktivLEO
NORAD 31565·DEBRIS·🇨🇳 China

Gestartet May 10, 1999 von Taiyuan Satellite Launch Center

Loading…

Nächste Überflüge (nächste 24 Stunden)

TLE

AktuellSource: Space-Track

Epoche: Sep 14, 2026, 14:00 UTC

1 31565U 99025BZG 26257.58350353  .00007643  00000-0  22170-2 0  9993
2 31565 100.7135 204.3554 0052872 337.1797  22.7036 14.43948558683281

Verfolge FENGYUN 1C DEB in Echtzeit mit AllMySat

Download on the App Store